CAPE
57 356 281 289 518 841 1078 1293 1172 832 585 765 694 653 610 606 546 599 498 335 271 120 93 78 112 20 0 0 0 0 0 0
0 188 424 417 481 645 1050 1217 1336 1100 832 747 677 623 722 544 557 510 400 279 269 236 125 128 173 65 10 0 0 0 0 1
0 0 434 702 571 563 982 1208 1311 1239 1147 864 760 728 717 649 645 705 514 305 259 303 236 185 112 89 24 0 0 0 0 60
0 0 23 686 802 801 952 1075 1348 1108 1363 1167 963 908 883 873 822 793 582 494 323 265 292 198 105 34 17 0 0 18 64 132
0 0 24 489 708 1134 1133 1254 1438 1132 1543 1487 1222 1048 953 920 914 1022 807 580 502 318 190 133 128 58 24 6 18 123 187 293
0 0 8 575 1276 1180 1366 1557 1522 1584 1430 1673 1501 1188 1130 1094 1013 1051 1061 972 807 500 334 218 199 131 65 69 137 223 358 587
0 0 0 181 917 1237 1229 1644 1671 1651 1620 1671 1587 1533 1360 1112 792 461 597 1282 1103 723 590 485 361 207 90 69 117 274 483 597
0 0 0 0 82 902 1291 1550 1811 1931 1782 1811 1739 1647 1543 1095 532 293 591 1432 1342 947 914 705 541 260 191 68 173 442 445 483
0 0 0 0 0 0 829 1204 1483 1827 1637 1550 1338 1184 1466 1400 1255 1087 1248 1275 1503 1439 1295 1033 808 549 281 148 210 79 459 615
0 0 0 0 0 0 0 523 1369 1567 1639 1701 1552 1395 1318 1378 1414 1379 1400 1246 1242 1037 1210 1101 841 675 448 236 198 552 726 792
0 0 0 0 0 0 0 9 807 1472 1811 1884 1704 1661 1352 1265 1280 1232 1169 1145 1150 1074 973 1009 893 644 507 315 211 382 666 763
0 0 0 0 0 0 0 3 484 1334 1778 1731 1707 1543 1514 1502 1421 1274 1157 1057 992 928 920 917 1066 1040 757 576 426 423 712 1108
0 0 0 0 0 0 0 24 516 1402 1760 1805 1906 1949 2112 1946 1746 1560 1425 1455 1259 1005 1045 1143 1206 1347 1316 1099 966 908 741 460
0 0 0 0 0 0 0 274 652 1606 1810 2015 2039 2020 2079 1998 1998 1856 1948 1857 1648 1546 1702 1726 1508 1558 1373 973 339 124 71 57
0 0 0 0 0 0 0 168 1043 1986 2318 2371 2364 2404 2250 2197 2161 2092 1947 1702 1601 1784 1719 1505 1608 1732 1354 612 470 165 17 20
0 0 0 0 0 0 0 12 696 1700 2436 2713 2706 2673 2458 2329 2160 1925 1873 1787 1720 1874 1669 1452 1368 1412 1438 1057 509 181 5 0
0 0 0 0 0 0 0 4 311 983 1657 1843 1688 1528 1158 713 664 763 758 1168 1430 1454 1457 1467 1418 1474 1612 1560 1282 798 536 140
0 0 0 0 0 0 0 41 295 532 936 954 571 266 204 139 169 138 180 233 151 226 268 328 323 528 694 1048 1035 928 737 798
0 0 0 0 0 0 0 5 194 338 433 270 85 38 53 29 16 10 0 0 0 0 0 61 38 27 168 237 271 321 281 407
0 0 0 0 0 0 4 1 81 111 80 29 40 38 0 0 0 0 0 0 0 0 0 0 0 1 113 50 8 29 53 47
CIN
-114 -187 -213 -270 -333 -319 -289 -255 -275 -337 -373 -300 -311 -287 -303 -322 -336 -274 -264 -333 -364 -466 -461 -479 -445 -582 -0 -0 -0 -0 -0 -0
-0 -153 -183 -261 -330 -348 -305 -261 -245 -280 -287 -320 -321 -320 -277 -326 -327 -332 -342 -381 -363 -345 -413 -409 -396 -441 -486 -0 -0 -0 -0 -32
-0 -0 -153 -217 -249 -316 -317 -278 -263 -264 -244 -263 -283 -303 -295 -283 -284 -268 -325 -391 -387 -319 -355 -390 -418 -419 -447 -0 -0 -0 -0 -345
-0 -0 -186 -214 -228 -274 -323 -330 -296 -324 -251 -256 -268 -256 -251 -228 -232 -250 -315 -321 -373 -345 -322 -358 -434 -494 -476 -134 -0 -321 -360 -310
-0 -0 -121 -137 -141 -243 -305 -316 -275 -343 -266 -244 -241 -211 -183 -195 -187 -165 -268 -340 -346 -348 -371 -375 -393 -405 -481 -484 -439 -377 -312 -254
-0 -0 -116 -141 -166 -192 -267 -284 -297 -284 -299 -220 -184 -198 -199 -192 -207 -178 -174 -199 -285 -322 -324 -349 -335 -360 -425 -372 -317 -278 -224 -189
-0 -0 -0 -189 -165 -175 -212 -264 -273 -316 -292 -222 -155 -148 -162 -206 -252 -309 -331 -165 -164 -289 -297 -308 -326 -323 -362 -352 -311 -266 -169 -176
-0 -0 -0 -0 -141 -234 -215 -247 -255 -229 -234 -202 -169 -166 -149 -192 -310 -358 -275 -132 -64 -218 -252 -273 -277 -309 -313 -338 -305 -207 -184 -167
-0 -0 -0 -0 -0 -1 -226 -230 -261 -232 -235 -246 -276 -290 -214 -179 -197 -190 -136 -128 -129 -120 -122 -209 -224 -244 -293 -309 -305 -242 -167 -186
-0 -0 -0 -0 -0 -0 -0 -193 -220 -255 -252 -244 -235 -249 -233 -192 -148 -126 -104 -98 -150 -121 -151 -155 -205 -209 -267 -296 -306 -201 -149 -167
-0 -0 -0 -0 -0 -0 -0 -58 -214 -246 -235 -181 -172 -164 -152 -174 -183 -188 -196 -183 -156 -165 -194 -195 -227 -229 -215 -251 -261 -216 -110 -152
-0 -0 -0 -0 -0 -0 -0 -87 -273 -265 -208 -218 -206 -204 -188 -224 -227 -224 -219 -225 -201 -170 -162 -157 -136 -172 -203 -195 -260 -160 -114 -32
-0 -0 -0 -0 -0 -0 -0 -368 -299 -215 -194 -199 -172 -160 -132 -172 -149 -147 -158 -176 -168 -168 -156 -137 -130 -110 -108 -137 -111 -78 -94 -72
-0 -0 -0 -0 -0 -0 -0 -322 -279 -182 -161 -148 -142 -144 -135 -117 -106 -95 -81 -102 -123 -124 -110 -106 -118 -98 -100 -121 -165 -183 -168 -117
-0 -0 -0 -0 -0 -0 -0 -341 -228 -147 -97 -96 -116 -113 -119 -104 -82 -61 -47 -49 -61 -72 -111 -124 -102 -79 -69 -148 -103 -154 -149 -103
-0 -0 -0 -0 -0 -0 -0 -115 -211 -187 -114 -87 -80 -71 -75 -77 -87 -86 -81 -64 -66 -82 -94 -104 -107 -103 -73 -114 -134 -205 -156 -0
-0 -0 -0 -0 -0 -0 -0 -79 -266 -258 -198 -175 -180 -168 -181 -199 -188 -172 -141 -113 -84 -87 -77 -61 -65 -56 -29 -18 -15 -45 -69 -122
-0 -0 -0 -0 -0 -0 -0 -481 -349 -338 -297 -256 -267 -286 -264 -266 -253 -227 -216 -201 -209 -190 -181 -158 -139 -104 -84 -32 -26 -27 -27 -15
-0 -0 -0 -0 -0 -0 -187 -290 -474 -406 -310 -300 -307 -299 -318 -322 -319 -291 -0 -0 -0 -0 -0 -43 -49 -191 -121 -104 -90 -86 -107 -83
-0 -0 -0 -0 -0 -0 -337 -492 -453 -406 -422 -383 -320 -274 -17 -0 -0 -0 -0 -0 -0 -0 -0 -0 -0 -18 -106 -130 -188 -156 -156 -186
Wind_Speed
23 20 18 18 17 14 12 10 10 10 10 10 9 10 9 10 11 10 8 7 5 5 3 2 2 2 3 5 6 8 9 10
26 24 22 16 17 17 15 14 12 12 13 14 14 13 12 11 11 11 10 9 9 8 6 5 6 5 5 7 8 9 10 10
29 25 24 23 20 18 18 17 16 15 15 16 16 16 16 15 15 14 14 14 14 12 14 12 11 12 13 11 10 11 11 11
33 29 26 23 23 23 22 21 19 18 19 17 17 17 18 20 20 22 21 24 24 20 17 14 17 14 17 19 18 15 14 15
34 29 27 24 21 20 22 23 21 19 19 20 22 22 21 21 23 27 26 26 25 21 19 17 15 13 17 17 19 17 16 17
32 33 28 24 23 21 18 17 18 19 20 19 21 22 22 22 22 27 31 32 30 27 24 22 19 18 18 18 19 18 20 18
34 31 31 29 25 22 22 21 19 18 19 20 20 20 21 23 25 26 27 36 34 29 29 27 23 22 20 20 20 18 21 21
38 36 33 32 29 27 24 22 21 19 20 19 21 22 22 24 23 26 24 32 37 34 31 30 25 25 23 23 23 21 21 22
39 38 36 36 34 32 30 25 22 20 20 22 24 24 23 22 22 24 25 31 32 37 34 30 31 29 28 23 24 23 23 20
41 39 38 38 37 35 33 31 26 24 23 23 24 26 25 23 22 21 25 26 29 27 30 34 33 34 30 31 28 29 25 21
40 40 37 37 39 37 36 35 33 29 26 24 27 24 23 23 24 24 19 21 24 26 30 31 30 34 36 32 28 31 28 25
41 40 39 35 37 37 38 36 35 33 30 29 28 29 27 26 26 25 22 22 24 24 27 28 26 26 28 28 28 29 28 26
41 41 40 38 36 36 35 35 35 32 30 30 31 31 27 25 25 23 23 22 23 24 22 22 23 24 24 23 23 25 25 30
39 41 41 42 39 35 32 31 30 29 29 29 28 29 28 28 26 25 24 25 25 25 25 26 27 27 25 23 24 30 35 42
39 40 42 44 45 40 36 32 30 24 23 23 24 25 25 26 26 27 28 29 29 27 26 26 26 26 24 27 31 30 35 35
31 35 40 45 47 45 39 35 33 27 23 23 24 24 25 25 25 25 26 28 29 27 27 27 27 26 26 26 25 23 22 19
29 29 30 35 41 45 42 39 37 32 27 25 24 23 21 21 20 21 23 24 25 26 26 27 27 26 24 23 22 18 15 15
32 33 34 32 33 38 40 41 38 32 29 26 24 21 18 18 18 20 22 24 25 25 24 25 25 24 24 24 23 20 17 16
32 33 33 32 31 29 34 36 36 32 27 23 22 20 18 17 18 19 20 22 23 23 22 21 20 19 17 17 18 17 18 18
33 32 32 31 29 27 23 27 29 27 25 24 22 19 17 17 17 17 17 19 19 19 20 19 18 16 15 15 15 15 17 19
Wind_Direction
271 263 261 259 258 252 245 234 226 222 219 217 221 229 210 195 182 181 190 185 204 181 203 215 288 70 32 56 48 35 26 34
275 266 259 252 252 253 249 245 240 233 241 240 236 230 230 220 209 207 219 222 236 241 245 255 276 295 316 333 350 358 10 20
276 272 268 262 253 252 249 248 246 249 245 249 246 240 236 237 238 234 240 242 247 252 259 266 273 285 290 306 325 336 345 353
275 270 265 262 259 256 253 251 251 248 248 250 250 249 246 246 247 248 248 253 253 254 260 266 269 277 284 289 297 314 324 328
274 268 265 262 256 254 255 255 256 251 246 250 253 254 251 250 251 252 250 251 255 258 260 264 270 277 280 291 293 304 311 317
276 272 266 265 263 254 250 249 250 251 251 252 252 252 252 252 250 255 254 255 253 256 259 263 268 274 280 285 289 297 300 310
275 277 267 266 260 258 257 254 250 246 252 254 252 255 251 254 261 250 255 256 255 254 259 262 265 272 276 280 285 293 296 301
276 276 273 266 262 263 261 255 252 252 255 254 255 259 259 260 263 267 256 252 255 255 257 262 263 266 271 275 279 290 293 299
279 277 274 270 264 260 259 256 253 250 250 252 255 256 260 260 260 260 257 256 252 255 260 262 263 265 269 271 278 285 288 296
280 279 275 269 265 261 256 254 253 251 251 254 263 260 263 262 264 261 258 254 254 251 256 263 266 266 267 268 273 277 285 287
282 281 280 271 265 262 258 255 253 251 253 257 262 264 268 264 264 263 254 254 254 255 259 266 266 267 269 272 270 270 275 283
281 281 280 276 270 266 261 258 255 253 253 254 252 257 261 264 265 265 263 258 257 259 262 265 269 272 272 272 276 272 274 278
281 280 279 277 274 271 265 259 255 252 250 251 253 255 262 268 265 267 266 262 258 261 264 266 270 270 270 276 275 273 271 277
285 282 279 275 274 272 267 260 256 251 247 245 246 253 257 260 264 265 266 264 263 262 264 267 271 274 273 269 271 278 279 283
289 285 280 275 271 269 266 261 256 250 245 241 242 247 252 258 262 264 263 264 265 266 266 268 271 273 274 274 277 277 277 284
300 296 287 279 271 267 263 259 254 250 246 246 247 250 255 260 262 265 266 267 269 271 270 271 273 274 276 279 282 283 283 295
304 310 311 296 279 266 260 257 254 251 247 249 249 250 252 254 259 264 268 271 273 273 271 271 272 273 276 278 280 277 276 253
300 302 306 310 299 275 261 255 253 251 249 248 247 246 250 254 259 265 270 273 274 274 273 274 275 275 274 274 277 279 279 282
308 304 304 305 309 297 268 256 251 247 243 242 241 241 246 254 261 266 271 275 275 274 272 273 274 275 277 277 279 280 283 290
301 307 310 309 309 317 288 263 251 243 241 241 240 241 242 250 259 267 271 274 274 272 270 269 271 274 277 281 284 288 290 294